[[{"header":{"parameterUnit":"m.s-1","parameterCategory":1,"la1":30.2991,"la2":30.254,"lo1":-89.0895,"lo2":-89.0444,"dy":0.0017,"dx":0.0017,"nx":28,"ny":28,"refTime":"2025-07-29T21:00:00:Z","depth":0,"parameterNumber":2,"parameterNumberName":"U-component_of_WINDS"},"data":[0,0,0,0,0,0,0,0,0,0,0,0,0,0,0,0,0,0,0,0,0,0,0,0,0,0,0,0,0,0,0,0,0,0,0,0,0,0,0,0,0,0,0,0,0,0,0,0,0,0,0,0,0,0,0,0,0,0,1.5063,1.5065,0,1.5241,1.5243,1.5245,1.5234,1.5232,1.5229,1.5227,1.5417,1.5424,1.5431,0,0,0,0,0,0,0,0,0,0,0,0,0,1.4722,1.4729,1.5063,1.5065,1.5067,1.5241,1.5243,1.5246,1.5235,1.5232,1.5228,1.5225,1.5414,1.5423,1.5432,0,0,0,0,0,0,0,0,0,0,0,0,0,1.4882,1.4731,1.5063,1.5083,1.5086,1.524,1.5243,1.5246,1.5235,1.5231,1.5228,1.5224,1.5411,1.5422,1.5433,1.5581,0,0,1.5467,1.5472,0,0,0,0,0,0,0,0,1.4873,1.4895,1.5078,1.5082,1.5086,1.5211,1.5193,1.5359,1.5236,1.5179,1.5226,1.5222,1.5352,1.5368,1.541,1.559,1.5598,1.5468,1.5475,1.548,1.5483,0,0,0,0,0,0,0,1.4862,1.4887,1.5134,1.508,1.5085,1.5086,1.5104,1.5224,1.5286,1.5184,1.5183,1.5204,1.5353,1.5399,1.5414,1.5601,1.5468,1.5478,1.5485,1.5489,1.5913,1.5917,0,0,0,0,0,0,1.4846,1.4878,1.5128,1.5139,1.4968,1.5095,1.5115,1.5175,1.5284,1.5297,1.5207,1.5203,1.5382,1.5401,1.5421,1.5602,1.548,1.5491,1.5497,1.5908,1.5914,1.5918,0,0,0,0,0,0,1.4838,1.4868,1.5121,1.5009,1.5041,1.5105,1.5172,1.5181,1.5226,1.5302,1.5314,1.5242,1.538,1.5405,1.5541,1.5608,1.5496,1.5506,1.5903,1.591,1.5916,1.5964,0,0,0,0,0,0,1.4829,1.4865,1.492,1.501,1.5047,1.5235,1.5176,1.5187,1.5245,1.5241,1.5338,1.535,1.5378,1.5524,1.5552,1.5622,1.5515,1.5897,1.5906,1.5914,1.5956,1.5971,1.5984,0,0,0,0,0,1.4816,1.4928,1.4923,1.4953,1.5116,1.5239,1.5261,1.5289,1.525,1.5307,1.5356,1.5347,1.5596,1.5538,1.557,1.5643,1.5893,1.5903,1.5913,1.595,1.5968,1.5984,0,0,0,0,0,0,1.4847,1.494,1.4935,1.5079,1.5151,1.5237,1.5309,1.5307,1.5394,1.5387,1.542,1.5443,1.5579,1.5625,1.5559,1.5793,1.574,1.5757,1.5757,1.5775,1.5789,1.5775,1.5524,0,0,0,0,0,1.487,1.4959,1.5037,1.5156,1.5192,1.5245,1.53,1.5315,1.5392,1.5423,1.5482,1.556,1.5656,1.5718,1.5811,1.5963,1.5985,1.603,1.6044,1.6054,1.6069,1.6154,1.6175,1.5952,1.5952,1.5951,0,0,1.4919,1.4981,1.5036,1.5164,1.5221,1.5316,1.5271,1.5372,1.5444,1.544,1.5571,1.5617,1.5706,1.5851,1.5918,1.5894,1.6135,1.6067,1.6075,1.6084,1.6167,1.6188,1.6207,1.5958,1.5957,1.5956,0,0,1.5056,1.5111,1.5217,1.5275,1.5363,1.5397,1.5423,1.551,1.5539,1.5671,1.567,1.5757,1.5921,1.5985,1.6039,1.6202,1.6198,1.6232,1.6304,1.6387,1.6404,1.642,1.6479,1.6499,1.6246,1.6246,1.6246,0,1.5106,1.5246,1.5272,1.5375,1.5432,1.5431,1.5539,1.5596,1.571,1.5751,1.5721,1.5928,1.5988,1.6148,1.6188,1.6231,1.6263,1.622,1.6399,1.6415,1.643,1.6487,1.6509,1.6249,1.6249,1.6249,1.6248,0,1.5305,1.5402,1.5477,1.5585,1.5651,1.5756,1.58,1.5865,1.5875,1.5913,1.6049,1.6121,1.6228,1.6267,1.628,1.6431,1.6413,1.6391,1.6338,1.6455,1.6508,1.653,1.6254,1.6253,1.6252,1.6251,0,0,1.5465,1.5586,1.5613,1.5662,1.5759,1.5836,1.5943,1.6045,1.61,1.618,1.6271,1.6411,1.6391,1.6453,1.6472,1.6545,1.6671,1.6515,1.6518,1.6542,1.6843,1.6858,1.6883,1.6669,1.6673,1.6676,1.6835,0,1.5612,1.5797,1.5825,1.5989,1.6081,1.6082,1.6175,1.6246,1.6285,1.6371,1.6415,1.6514,1.648,1.6517,1.6589,1.664,1.6732,1.6629,1.6756,1.676,1.6733,1.6911,1.6927,1.7074,1.6857,1.686,1.6863,0,1.5808,1.5891,1.6064,1.6149,1.6189,1.6271,1.6368,1.6449,1.6531,1.6555,1.6623,1.6634,1.6748,1.669,1.6848,1.6777,1.6831,1.6865,1.6871,1.6884,1.6818,1.6928,1.7121,1.7143,1.6896,1.6893,1.6891,0,1.5908,1.6063,1.6186,1.6229,1.6331,1.639,1.6436,1.6513,1.6574,1.666,1.67,1.6799,1.6853,1.6931,1.6969,1.6924,1.7125,1.7071,1.7149,1.7148,1.7191,1.7188,1.7395,1.7226,1.7226,1.7226,1.7225,0,1.6069,1.6175,1.6232,1.6308,1.6428,1.646,1.6579,1.6624,1.6693,1.678,1.6788,1.687,1.6916,1.7006,1.7037,1.7163,1.7188,1.7212,1.7219,1.7211,1.7208,1.7246,1.7237,1.7231,1.723,1.7229,1.7228,0,1.62,1.6242,1.6377,1.6464,1.6488,1.6572,1.6647,1.6723,1.6762,1.6872,1.69,1.6962,1.7068,1.7114,1.7245,1.7266,1.7411,1.7411,1.7382,1.7385,1.7461,1.7453,1.77,1.7734,1.7543,1.7544,1.7546,0,1.63,1.6381,1.6476,1.6533,1.658,1.6673,1.6735,1.6771,1.6835,1.6935,1.6999,1.7104,1.719,1.736,1.7418,1.7519,1.7522,1.7601,1.7537,1.7526,1.7523,1.7517,1.7526,1.7613,1.7615,1.7616,1.7617,0,1.6472,1.649,1.6576,1.6671,1.6744,1.6821,1.6896,1.6944,1.6992,1.7064,1.7171,1.7237,1.7371,1.7476,1.758,1.7631,1.7633,1.7637,1.7661,1.7653,1.7633,1.7645,1.7414,1.7631,1.763,1.7629,1.7628,1.7628,1.6591,1.6664,1.6741,1.6838,1.6899,1.6969,1.7044,1.7092,1.7182,1.7291,1.7308,1.7423,1.7505,1.7645,1.7699,1.7791,1.7772,1.7806,1.7815,1.7822,1.7827,1.7619,1.7811,1.781,1.781,1.781,1.781,0,1.6764,1.6814,1.6903,1.7007,1.7085,1.7078,1.7162,1.7227,1.7327,1.7402,1.7487,1.7611,1.7713,1.778,1.7884,1.7945,1.7949,1.7972,1.7967,1.7979,1.7838,1.7807,1.7967,1.7967,1.7967,1.7967,1.7967,1.7966,1.6863,1.6985,1.7012,1.7166,1.7217,1.7327,1.7375,1.7442,1.7502,1.7639,1.7723,1.7765,1.7838,1.7948,1.8043,1.806,1.8098,1.8122,1.8138,1.8005,1.7989,1.7973,1.7944,1.813,1.813,1.8271,1.8272,1.8273]},{"header":{"parameterUnit":"m.s-1","parameterCategory":1,"la1":30.2991,"la2":30.254,"lo1":-89.0895,"lo2":-89.0444,"dy":0.0017,"dx":0.0017,"nx":28,"ny":28,"refTime":"2025-07-29T21:00:00:Z","depth":0,"parameterNumber":3,"parameterNumberName":"V-component_of_WINDS"},"data":[0,0,0,0,0,0,0,0,0,0,0,0,0,0,0,0,0,0,0,0,0,0,0,0,0,0,0,0,0,0,0,0,0,0,0,0,0,0,0,0,0,0,0,0,0,0,0,0,0,0,0,0,0,0,0,0,0,0,2.1028,2.103,0,2.1219,2.1222,2.1224,2.1196,2.1193,2.119,2.1187,2.1384,2.1392,2.14,0,0,0,0,0,0,0,0,0,0,0,0,0,2.0636,2.0643,2.1028,2.103,2.1032,2.1219,2.1222,2.1224,2.1197,2.1193,2.1189,2.1185,2.1382,2.1391,2.1401,0,0,0,0,0,0,0,0,0,0,0,0,0,2.0815,2.0646,2.1027,2.1041,2.1044,2.1218,2.1222,2.1225,2.1198,2.1193,2.1188,2.1184,2.1378,2.139,2.1403,2.1575,0,0,2.144,2.1446,0,0,0,0,0,0,0,0,2.0805,2.0829,2.1037,2.1041,2.1044,2.1179,2.1156,2.1342,2.1199,2.114,2.1187,2.1181,2.132,2.1337,2.1383,2.1584,2.1593,2.1441,2.1449,2.1454,2.1458,0,0,0,0,0,0,0,2.0792,2.0821,2.1103,2.104,2.1045,2.1037,2.1057,2.1191,2.1254,2.1144,2.1143,2.1166,2.1321,2.1371,2.1388,2.1596,2.1441,2.1452,2.146,2.1465,2.1943,2.1948,0,0,0,0,0,0,2.0776,2.0811,2.1097,2.1109,2.091,2.1048,2.1071,2.1141,2.1253,2.1265,2.117,2.1164,2.1353,2.1373,2.1395,2.1601,2.1454,2.1466,2.1473,2.1938,2.1944,2.195,0,0,0,0,0,0,2.0768,2.0802,2.109,2.096,2.0996,2.106,2.1139,2.1147,2.1197,2.1272,2.1283,2.121,2.135,2.1377,2.1529,2.1608,2.1471,2.1483,2.1932,2.194,2.1947,2.2018,0,0,0,0,0,0,2.0757,2.0799,2.0867,2.0961,2.1003,2.1222,2.1144,2.1154,2.1219,2.1213,2.1313,2.1324,2.1348,2.1511,2.1542,2.1622,2.1492,2.1925,2.1935,2.1945,2.2009,2.2027,2.2043,0,0,0,0,0,2.0743,2.088,2.087,2.0905,2.1088,2.1227,2.1251,2.1275,2.1225,2.1292,2.1339,2.1321,2.1594,2.1527,2.1561,2.1647,2.192,2.1932,2.1944,2.2001,2.2024,2.2042,0,0,0,0,0,0,2.0795,2.0893,2.0883,2.1055,2.1132,2.1222,2.1308,2.1298,2.1392,2.1383,2.1409,2.1432,2.1585,2.1631,2.1554,2.1817,2.175,2.1769,2.1782,2.1804,2.1821,2.1806,2.1503,0,0,0,0,0,2.0825,2.093,2.1011,2.1154,2.1194,2.1244,2.1306,2.1317,2.1399,2.1432,2.149,2.157,2.1673,2.1741,2.1841,2.2015,2.2034,2.209,2.2107,2.2121,2.2137,2.2229,2.2254,2.1989,2.1989,2.1989,0,0,2.0892,2.0958,2.1023,2.1166,2.1228,2.1334,2.1272,2.1389,2.1468,2.145,2.1596,2.1641,2.1732,2.1895,2.1969,2.1938,2.2214,2.2136,2.2146,2.2156,2.2244,2.2269,2.2291,2.1997,2.1996,2.1994,0,0,2.1066,2.1128,2.1252,2.1314,2.1407,2.1439,2.1469,2.1559,2.1588,2.1735,2.1722,2.1816,2.1995,2.2059,2.2115,2.2307,2.2293,2.2339,2.2429,2.2518,2.2538,2.2557,2.2624,2.2647,2.2355,2.2355,2.2356,0,2.1136,2.1297,2.1318,2.1435,2.1497,2.1483,2.1609,2.1668,2.1789,2.1832,2.1794,2.2015,2.2075,2.2251,2.2297,2.2344,2.2377,2.2328,2.2534,2.2553,2.257,2.2634,2.2659,2.236,2.236,2.2359,2.2359,0,2.1377,2.1489,2.1578,2.1693,2.1765,2.1886,2.1924,2.1995,2.1998,2.2033,2.2181,2.2252,2.2364,2.2406,2.2413,2.2582,2.2559,2.2528,2.2461,2.26,2.266,2.2685,2.2367,2.2365,2.2364,2.2363,0,0,2.1593,2.1714,2.1747,2.1797,2.1897,2.1983,2.2101,2.2209,2.2268,2.2351,2.2449,2.2598,2.2568,2.2631,2.2644,2.2722,2.2867,2.268,2.2683,2.2711,2.3054,2.3077,2.3105,2.2857,2.2862,2.2866,2.3046,0,2.1775,2.1985,2.2005,2.2192,2.2293,2.2279,2.2382,2.2453,2.2488,2.2578,2.2617,2.2721,2.2675,2.2712,2.2789,2.2833,2.2936,2.282,2.2948,2.2952,2.2925,2.3137,2.3163,2.333,2.307,2.3074,2.3077,0,2.2017,2.2105,2.2302,2.2383,2.2426,2.2519,2.2617,2.2704,2.2783,2.2802,2.287,2.2871,2.2991,2.2918,2.3082,2.3003,2.3056,2.3085,2.3092,2.3105,2.3023,2.3154,2.3384,2.3408,2.3115,2.3112,2.3109,0,2.2152,2.2319,2.2457,2.2501,2.26,2.2665,2.2709,2.2783,2.2845,2.2931,2.2971,2.307,2.3124,2.3199,2.3226,2.3171,2.3388,2.3318,2.3406,2.3405,2.3453,2.345,2.3693,2.3488,2.3488,2.3487,2.3487,0,2.2354,2.2474,2.2519,2.2604,2.2737,2.2758,2.2889,2.293,2.2995,2.3087,2.3081,2.3167,2.3196,2.3287,2.3308,2.3438,2.3463,2.3481,2.3485,2.3482,2.3479,2.3517,2.3506,2.3494,2.3492,2.3491,2.349,0,2.2527,2.2562,2.2712,2.2792,2.2814,2.2909,2.2977,2.3058,2.309,2.3205,2.3233,2.3284,2.3389,2.3422,2.355,2.3564,2.3716,2.371,2.3689,2.369,2.3775,2.3766,2.4051,2.4088,2.3859,2.3861,2.3863,0,2.2654,2.2746,2.2834,2.2895,2.2941,2.3039,2.3101,2.3124,2.3189,2.3283,2.3352,2.3456,2.354,2.3709,2.3756,2.3852,2.3848,2.3941,2.3863,2.3855,2.3848,2.3842,2.385,2.3956,2.3959,2.3961,2.3962,0,2.2874,2.2885,2.2975,2.3071,2.3145,2.3222,2.3295,2.3345,2.3378,2.3451,2.3558,2.3623,2.3751,2.3853,2.395,2.3994,2.3984,2.3986,2.4011,2.4008,2.3991,2.4,2.3728,2.398,2.3978,2.3977,2.3976,2.3975,2.3027,2.3106,2.318,2.328,2.3337,2.3405,2.3483,2.3523,2.3613,2.3719,2.3726,2.3841,2.3913,2.4042,2.4091,2.418,2.4153,2.419,2.4199,2.4208,2.4214,2.3977,2.4198,2.4197,2.4197,2.4196,2.4196,0,2.3245,2.329,2.3382,2.3483,2.3561,2.3542,2.3621,2.3687,2.3788,2.3857,2.3939,2.4059,2.4157,2.421,2.4307,2.4368,2.4365,2.4392,2.4388,2.4398,2.4233,2.4201,2.4393,2.4393,2.4393,2.4393,2.4393,2.4393,2.3367,2.35,2.352,2.3679,2.3724,2.3836,2.3882,2.3943,2.3998,2.4132,2.4213,2.4246,2.4308,2.4408,2.4496,2.4509,2.4545,2.4575,2.4585,2.443,2.441,2.4391,2.436,2.4583,2.4583,2.4742,2.4743,2.4744]}]]